This is the latest recevied weather packets stored in our database for station/object N6WDO. If no packets are shown the sender has not sent any weather packets the latest 10 day(s).
| Time | Temp. | Humidity | Pressure | Rain* | Wind** | Luminosity | Snow |
|---|---|---|---|---|---|---|---|
| 1777081550 | 18.33° C | 49% | 1011.7 hPa | 0 mm | - | 25 W/m² | - |
| 1777081247 | 18.89° C | 49% | 1011.6 hPa | 0 mm | - | 27 W/m² | - |
| 1777080945 | 18.89° C | 47% | 1011.8 hPa | 0 mm | - | 28 W/m² | - |
| 1777080641 | 18.89° C | 48% | 1011.9 hPa | 0 mm | - | 29 W/m² | - |
| 1777080336 | 19.44° C | 47% | 1011.7 hPa | 0 mm | - | 30 W/m² | - |
| 1777080036 | 19.44° C | 46% | 1011.9 hPa | 0 mm | - | 31 W/m² | - |
| 1777079735 | 19.44° C | 44% | 1011.7 hPa | 0 mm | - | 32 W/m² | - |
| 1777079431 | 20° C | 45% | 1012 hPa | 0 mm | - | 41 W/m² | - |
| 1777079126 | 20° C | 42% | 1011.6 hPa | 0 mm | - | 34 W/m² | - |
| 1777078823 | 20° C | 42% | 1011.6 hPa | 0 mm | - | 55 W/m² | - |
| 1777078519 | 20.56° C | 40% | 1011.8 hPa | 0 mm | - | 36 W/m² | - |
| 1777078215 | 20.56° C | 38% | 1011.8 hPa | 0 mm | - | 37 W/m² | - |
| 1777077909 | 20.56° C | 40% | 1011.6 hPa | 0 mm | - | 37 W/m² | - |
| 1777077607 | 20.56° C | 40% | 1011.8 hPa | 0 mm | - | 172 W/m² | - |
| 1777077303 | 21.11° C | 37% | 1011.9 hPa | 0 mm | - | 53 W/m² | - |
| 1777077001 | 21.11° C | 36% | 1011.6 hPa | 0 mm | - | 67 W/m² | - |
| 1777076697 | 21.67° C | 34% | 1011.6 hPa | 0 mm | - | 252 W/m² | - |
| 1777076394 | 21.67° C | 35% | 1012 hPa | 0 mm | - | 156 W/m² | - |
| 1777076089 | 21.11° C | 36% | 1011.9 hPa | 0 mm | - | 195 W/m² | - |
| 1777075785 | 21.67° C | 38% | 1011.9 hPa | 0 mm | - | 96 W/m² | - |
| 1777075480 | 21.67° C | 35% | 1011.8 hPa | 0 mm | - | 72 W/m² | - |
* Rain latest hour (hover to see other rain measurements)
** Current wind speed in m/s (hover to see current wind gust speed)